Temperature
15 15 15 15 15 15 14 14 14 14 14 14 14 13 13 13 13 13 13 13 12 12 12 12 12 11 11 11 11 11 11 11 11 11 10 10 10 10 10 10 9 9 9
15 15 15 15 15 14 14 14 14 14 13 13 13 13 13 13 13 13 12 12 12 12 12 12 11 11 11 11 11 11 10 10 10 10 10 10 10 9 9 9 9 9 9
15 15 15 14 14 14 14 14 13 13 13 13 13 13 13 13 12 12 12 12 12 12 12 11 11 11 11 11 11 10 10 10 10 10 10 10 9 9 9 9 9 9 9
15 15 14 14 14 14 13 13 13 13 13 13 13 13 13 12 12 12 12 12 12 11 11 11 11 11 11 10 10 10 10 10 10 10 9 9 9 9 9 9 9 9 8
14 14 14 14 14 14 13 13 13 13 13 12 12 12 12 12 12 12 12 11 11 11 11 11 11 11 11 11 10 10 10 10 9 9 9 9 9 9 9 9 8 8 8
14 14 14 14 14 13 13 13 13 13 13 12 12 12 12 12 12 12 12 11 11 11 11 11 11 10 10 10 10 10 10 9 9 9 9 9 9 9 9 8 8 8 8
14 14 14 13 13 13 13 13 13 13 13 12 12 12 12 12 12 11 11 11 11 11 10 10 10 10 10 10 10 10 10 10 9 9 9 9 9 9 8 8 8 8 8
14 13 13 13 13 13 13 13 13 12 12 12 12 12 12 12 11 11 11 11 10 10 10 10 10 10 10 10 9 9 9 9 9 9 9 8 8 8 8 8 8 8 8
13 13 13 13 13 13 13 13 12 12 12 12 12 11 11 11 11 11 11 10 10 10 10 10 10 10 10 10 9 9 9 9 9 9 9 8 8 8 8 8 8 7 7
13 13 13 12 12 12 12 12 12 12 12 12 11 11 11 11 11 11 11 10 10 10 10 10 10 10 10 10 9 9 9 9 8 8 8 8 8 8 8 8 7 7 7
13 12 12 12 12 12 12 12 12 12 12 11 11 11 11 11 11 11 11 10 10 10 10 10 10 10 9 9 9 9 9 8 8 8 8 8 8 8 8 8 7 7 7
12 12 12 12 12 12 11 11 11 11 11 11 11 11 11 11 11 11 10 10 10 9 9 9 9 9 9 9 9 9 8 8 8 8 8 8 8 8 7 7 7 7 7
12 12 12 11 11 11 11 11 11 11 11 11 10 10 10 10 10 10 10 10 10 9 9 9 9 9 9 9 9 8 8 8 8 8 8 8 7 7 7 7 7 7 7
11 11 11 11 11 11 10 10 10 10 10 10 10 10 10 10 10 10 10 9 9 9 9 9 9 8 8 8 8 8 8 7 7 7 7 7 7 7 7 7 7 7 6
11 11 10 10 10 10 10 10 10 10 10 10 10 10 10 10 10 10 10 9 9 9 9 8 8 8 8 8 8 8 7 7 7 7 7 7 7 7 6 6 6 6 6
10 10 10 10 10 10 10 10 10 10 10 10 10 9 9 9 9 9 9 9 9 9 8 8 8 8 7 7 7 7 7 7 7 7 7 7 6 6 6 6 6 5 5
10 10 10 10 9 9 9 9 9 9 9 9 9 9 9 9 9 9 9 9 8 8 8 7 7 7 7 7 7 7 7 7 7 6 6 6 6 6 6 5 5 5 5
10 10 10 9 9 9 9 9 9 9 9 9 9 9 9 8 8 8 8 8 8 8 7 7 7 7 7 7 7 7 6 6 6 6 6 6 6 6 5 5 5 5 5
9 9 9 9 9 8 8 8 8 8 8 8 8 8 8 8 8 8 7 7 7 7 7 7 7 7 7 6 6 6 6 6 6 6 6 6 5 5 5 5 5 5 4
9 9 9 9 8 8 8 8 8 7 7 7 7 7 7 7 7 7 7 7 7 7 7 7 7 6 6 6 6 6 6 6 6 5 5 5 5 5 5 5 5 4 4
9 9 9 8 8 8 7 7 7 7 7 7 7 7 7 7 7 7 7 7 7 6 6 6 6 6 6 6 6 6 6 5 5 5 5 5 5 5 5 4 4 4 4
8 8 8 8 8 7 7 7 7 7 7 6 6 6 6 6 6 6 6 6 6 6 6 6 6 6 5 5 5 5 5 5 5 5 5 5 5 4 4 4 4 4 3
8 8 7 7 7 7 7 6 6 6 6 6 6 6 6 6 6 6 6 6 6 6 5 5 5 5 5 5 5 5 5 5 5 5 5 5 5 4 4 4 4 4 3
7 7 7 7 7 6 6 6 6 6 6 6 5 5 5 5 5 5 5 5 5 5 5 5 5 5 5 5 5 5 5 5 5 5 5 5 4 4 4 4 4 4 3
7 7 7 6 6 6 6 6 5 5 5 5 5 5 5 5 5 5 5 5 5 5 5 5 5 5 5 5 5 5 5 5 4 4 4 4 4 4 4 4 4 3 3
6 6 6 6 6 5 5 5 5 5 5 5 5 5 5 5 4 4 4 4 4 4 4 4 4 4 4 4 4 4 4 4 4 4 4 4 4 4 4 3 3 3 3
Wind_Speed
5 5 5 5 4 4 4 4 3 3 4 4 4 3 3 3 3 3 3 2 2 2 2 2 2 1 1 1 1 2 2 2 2 1 2 2 2 2 1 2 3 3 2
5 5 5 4 5 5 4 4 4 4 4 4 4 4 4 3 3 3 3 3 3 2 2 2 2 2 2 2 2 2 2 2 2 2 2 2 3 3 2 3 3 3 3
5 5 5 5 5 5 5 4 4 4 4 4 4 4 4 4 3 3 3 3 3 3 3 3 3 3 3 2 3 3 2 2 2 3 3 2 3 3 3 3 4 3 4
5 5 5 5 5 5 4 4 4 4 4 4 4 4 4 4 4 4 4 3 3 3 3 3 3 3 4 3 3 3 3 3 3 3 3 3 3 3 3 3 3 3 4
5 5 5 4 4 5 5 5 5 5 5 4 4 4 4 4 4 4 4 4 4 3 4 4 3 2 2 2 3 3 3 3 3 3 4 4 4 3 4 3 4 4 4
5 5 4 4 4 4 5 5 5 5 5 5 5 5 5 4 2 3 5 5 5 5 4 4 4 5 4 5 4 4 4 5 4 4 4 5 5 5 4 4 4 4 4
5 5 5 5 5 5 5 5 5 5 5 5 6 6 6 5 5 6 6 6 6 6 6 5 4 4 5 6 6 7 7 6 6 6 6 6 6 5 5 6 5 6 6
5 5 5 6 6 5 5 5 6 5 5 6 6 7 6 6 6 7 7 8 7 7 6 6 6 6 6 5 6 6 6 6 6 7 7 6 6 5 5 6 6 6 6
5 5 5 6 6 6 6 6 6 6 6 6 7 7 7 7 8 8 8 7 7 8 8 8 8 8 4 5 7 7 6 5 5 6 6 6 5 5 5 4 5 5 6
6 6 6 6 6 6 7 7 6 6 6 6 7 7 8 8 7 9 10 7 8 7 7 7 7 7 5 6 8 7 7 6 5 5 6 7 7 6 7 7 6 6 5
6 6 6 7 7 6 6 6 6 6 6 7 7 7 8 8 7 9 10 8 7 7 7 6 6 8 8 9 9 8 6 6 6 6 5 5 5 5 5 6 6 6 6
5 6 6 7 6 6 6 6 6 6 6 6 6 6 6 6 6 7 10 10 8 8 7 6 5 7 9 9 8 6 4 5 6 5 5 5 5 5 5 5 6 6 6
6 6 6 6 6 6 6 6 6 6 5 6 5 6 5 5 5 7 9 10 9 7 6 4 4 6 7 7 8 7 6 6 6 6 6 6 5 5 5 4 5 5 6
6 6 6 6 6 6 5 5 6 6 6 6 6 6 5 4 4 4 5 6 7 7 6 4 5 6 6 6 6 7 7 6 6 6 6 5 5 5 5 4 4 4 4
6 6 6 6 6 6 6 5 6 6 6 6 6 5 5 6 5 4 5 5 5 6 5 5 5 5 5 6 6 6 6 6 6 6 6 6 5 5 5 5 5 5 5
6 6 5 5 5 5 5 5 4 6 4 5 5 6 5 6 5 6 7 7 7 7 6 6 6 6 6 6 6 6 6 6 7 7 7 7 6 6 6 5 5 6 6
7 6 5 5 5 5 5 5 5 5 6 7 7 7 7 6 5 6 6 7 7 8 7 7 7 7 7 7 7 7 7 7 7 7 7 7 7 7 6 6 6 6 7
7 6 5 5 5 5 6 6 6 5 5 5 6 7 7 7 7 6 6 4 5 7 7 7 8 7 7 7 7 7 7 7 7 7 7 7 7 7 7 7 7 8 7
6 5 5 5 5 5 5 5 5 6 6 5 5 5 6 6 6 6 6 5 6 7 7 7 8 8 8 8 8 8 8 7 8 7 7 8 8 8 8 8 8 8 8
6 6 5 5 5 5 5 6 5 6 6 6 6 5 4 4 4 5 6 6 6 7 7 8 8 8 8 8 7 7 7 8 8 8 8 8 8 8 8 9 8 8 8
5 5 6 6 6 6 5 6 6 6 6 6 6 5 5 5 6 7 6 7 7 7 7 8 8 8 8 7 7 8 9 8 8 8 8 8 8 8 8 8 8 8 8
5 5 5 5 6 6 6 6 6 6 7 7 6 5 6 6 6 7 7 7 7 7 7 7 8 8 8 8 8 8 9 9 9 8 8 8 8 8 8 8 8 8 8
5 5 5 5 5 5 6 6 6 6 7 7 6 6 6 6 7 7 7 7 7 7 7 7 7 7 7 8 9 9 9 10 9 9 9 9 8 8 8 9 10 9 9
5 5 5 5 5 5 6 6 6 7 7 7 6 6 6 6 7 7 7 7 7 7 7 7 8 9 11 9 9 9 9 9 9 9 11 10 9 9 9 9 10 10 10
5 5 5 5 5 6 6 6 6 6 7 6 6 6 6 7 7 7 6 6 7 7 8 8 7 8 10 11 10 9 9 10 10 9 9 9 10 10 10 10 9 9 9
5 5 5 5 6 6 6 6 6 7 7 7 6 7 7 7 7 7 6 6 6 7 8 7 9 10 11 10 11 10 10 11 11 12 10 8 9 9 9 8 10 9 10
Wind_Direction
193 192 190 192 191 192 196 194 194 193 189 189 189 191 184 184 187 182 192 186 200 185 189 204 207 214 215 215 229 250 266 266 260 256 232 221 233 251 220 264 269 266 231
190 190 194 190 192 198 198 199 198 193 191 197 189 191 191 190 187 190 194 201 214 211 201 202 206 197 217 230 227 236 244 253 249 257 241 240 251 257 262 262 265 270 274
185 190 194 197 199 203 204 200 202 198 196 197 194 197 194 195 198 206 207 212 217 221 221 223 226 219 219 217 227 234 237 240 243 242 249 252 258 255 260 261 262 267 268
183 191 201 204 204 206 208 204 206 204 202 203 203 204 203 204 209 215 218 219 219 222 225 231 237 237 233 229 226 232 235 236 236 243 249 245 249 254 257 259 265 257 265
189 195 204 204 204 207 205 205 206 207 212 210 213 212 213 217 219 222 220 225 223 225 227 227 228 242 293 262 250 240 233 235 236 246 250 254 253 246 253 258 266 272 270
196 200 201 201 200 205 206 205 206 206 214 215 220 221 220 223 184 233 248 230 231 229 231 231 217 208 206 217 236 251 261 248 245 247 254 256 262 259 262 264 268 267 275
203 204 201 201 200 206 203 204 209 210 212 217 223 225 227 213 183 209 238 245 240 239 238 237 237 228 218 226 213 215 229 237 249 259 264 267 270 269 263 260 262 270 278
211 212 206 205 205 206 207 210 215 219 215 221 226 228 233 221 196 212 225 241 242 240 240 239 238 238 226 235 237 236 239 233 233 244 260 269 276 274 265 267 271 270 275
219 222 214 211 210 212 216 219 222 223 224 226 229 232 233 227 206 213 221 238 240 239 238 238 240 242 200 229 243 244 245 242 219 230 265 279 289 273 262 254 252 255 265
227 232 226 219 215 218 225 227 224 225 230 232 234 237 238 240 210 209 221 235 239 240 239 235 231 243 213 214 239 245 249 250 242 230 233 235 243 233 227 240 248 256 266
232 236 232 224 223 224 230 231 229 230 233 236 238 239 241 242 220 209 217 233 238 241 239 236 226 204 216 221 244 251 254 263 254 248 248 245 244 244 236 239 246 253 258
229 232 231 227 225 225 227 234 235 231 232 237 239 239 240 238 235 218 216 232 252 244 244 244 231 193 213 222 233 248 253 254 249 246 245 244 245 245 244 242 243 246 255
229 233 234 230 224 227 227 229 231 230 232 238 239 241 239 238 230 223 222 227 239 245 249 257 243 207 214 224 227 231 230 236 238 241 245 247 249 249 247 244 245 245 251
232 235 233 227 226 228 229 230 228 229 230 234 237 241 242 241 243 236 232 227 223 236 246 233 216 210 222 234 224 222 230 235 240 243 247 251 250 243 241 242 243 241 246
236 238 235 228 229 230 230 234 233 235 238 239 240 243 242 245 249 252 245 242 232 223 223 226 226 225 227 229 230 230 231 231 235 239 242 244 244 243 243 242 244 248 251
236 238 234 231 227 230 235 239 232 237 236 240 253 255 254 258 264 245 242 242 234 217 215 225 229 230 232 234 235 234 233 235 237 234 235 238 240 241 242 240 239 243 248
236 238 231 232 232 232 234 237 242 236 228 233 238 246 255 266 262 249 244 237 221 207 221 231 233 232 234 235 236 237 238 239 240 237 236 236 237 240 240 239 237 240 245
238 236 231 230 233 234 236 239 242 246 249 250 238 233 244 251 253 254 247 232 223 217 230 236 238 236 236 237 239 240 240 238 239 239 238 237 235 236 239 239 238 239 244
238 235 232 233 234 236 237 241 245 248 251 254 258 246 234 241 241 239 223 232 232 233 234 238 243 243 242 242 242 240 240 239 240 239 238 238 236 235 237 238 240 239 241
236 229 229 234 236 237 238 240 243 248 253 256 257 259 251 243 246 239 231 237 242 244 243 242 243 245 243 243 243 241 241 240 239 240 240 237 236 236 238 237 236 236 237
234 226 220 232 237 239 241 243 245 247 252 256 258 256 248 246 248 246 243 242 244 248 250 249 246 244 243 242 241 239 240 242 240 241 241 238 235 235 237 237 234 233 236
232 232 232 235 238 239 242 244 246 249 252 256 260 250 232 244 251 252 252 253 251 251 252 252 248 245 241 239 240 241 241 242 241 239 241 239 236 234 234 234 233 230 231
231 234 237 239 240 238 241 244 245 249 253 256 257 255 247 249 253 254 256 257 258 258 256 254 253 252 252 247 243 242 242 242 241 238 240 241 237 234 233 233 233 231 231
229 231 237 242 241 241 244 247 248 249 252 255 255 254 254 254 256 258 260 261 261 261 261 259 257 256 257 256 251 248 249 249 247 242 240 240 239 237 234 234 232 228 229
234 237 240 243 244 244 246 250 252 254 254 254 255 255 256 257 258 260 261 261 263 264 263 263 261 258 258 257 251 249 249 247 247 248 244 240 239 238 236 233 230 230 229
242 243 244 245 246 248 248 250 253 255 256 256 255 254 254 255 258 261 262 263 265 266 266 265 262 261 261 259 256 254 248 241 240 244 244 238 238 237 234 232 231 229 227
Height
1545 1546 1547 1548 1548 1549 1549 1550 1550 1550 1551 1551 1552 1552 1552 1552 1552 1552 1552 1552 1552 1552 1552 1552 1552 1552 1552 1552 1551 1551 1551 1551 1551 1551 1550 1549 1548 1547 1546 1544 1544 1543 1541
1543 1544 1545 1545 1546 1547 1547 1548 1548 1548 1549 1549 1550 1550 1550 1551 1551 1551 1551 1550 1551 1551 1551 1551 1550 1550 1550 1550 1549 1549 1549 1549 1549 1548 1548 1547 1546 1545 1544 1542 1542 1541 1539
1541 1542 1542 1543 1544 1544 1545 1545 1546 1546 1547 1547 1548 1548 1548 1549 1549 1549 1549 1549 1549 1549 1549 1549 1549 1549 1548 1548 1547 1547 1547 1547 1547 1546 1546 1545 1544 1543 1542 1541 1540 1538 1537
1538 1539 1540 1540 1541 1542 1542 1543 1543 1544 1545 1545 1546 1546 1546 1546 1546 1547 1547 1547 1547 1547 1547 1546 1546 1546 1546 1546 1545 1545 1545 1545 1544 1544 1544 1543 1542 1540 1540 1539 1538 1537 1536
1535 1536 1537 1538 1538 1539 1539 1540 1540 1541 1542 1543 1543 1544 1544 1544 1544 1544 1545 1544 1545 1544 1544 1544 1544 1543 1543 1543 1543 1543 1543 1542 1542 1542 1541 1541 1540 1539 1538 1537 1536 1535 1534
1532 1533 1534 1535 1535 1536 1536 1537 1537 1538 1539 1539 1540 1541 1541 1541 1541 1541 1542 1542 1542 1542 1542 1542 1541 1541 1540 1540 1540 1540 1540 1540 1540 1539 1539 1538 1537 1537 1535 1534 1534 1533 1532
1530 1530 1531 1532 1532 1533 1533 1534 1534 1535 1536 1536 1537 1537 1538 1538 1538 1538 1538 1539 1539 1539 1539 1539 1538 1538 1537 1538 1537 1537 1536 1536 1536 1536 1536 1535 1535 1534 1533 1532 1531 1530 1529
1527 1528 1528 1529 1529 1530 1530 1531 1531 1532 1532 1532 1533 1534 1534 1534 1534 1535 1535 1535 1535 1535 1535 1535 1535 1535 1534 1534 1534 1534 1534 1533 1533 1532 1532 1532 1531 1530 1529 1528 1527 1526 1525
1524 1524 1525 1525 1526 1526 1527 1527 1528 1528 1528 1529 1529 1530 1530 1530 1530 1531 1531 1531 1531 1531 1531 1531 1531 1531 1530 1530 1530 1531 1530 1530 1529 1528 1528 1527 1526 1525 1525 1524 1523 1523 1522
1520 1521 1521 1522 1522 1522 1523 1524 1524 1524 1525 1525 1525 1525 1525 1526 1526 1526 1526 1527 1527 1527 1526 1526 1526 1526 1526 1526 1526 1526 1526 1526 1525 1524 1524 1523 1522 1522 1521 1520 1520 1520 1519
1516 1517 1517 1518 1518 1518 1519 1520 1520 1520 1520 1521 1521 1521 1521 1521 1521 1521 1521 1522 1522 1522 1522 1522 1521 1521 1521 1521 1522 1522 1522 1522 1521 1521 1520 1519 1519 1518 1517 1516 1516 1515 1515
1512 1512 1513 1513 1514 1514 1515 1515 1516 1516 1516 1516 1516 1516 1516 1516 1516 1516 1516 1517 1517 1517 1517 1517 1517 1516 1516 1516 1517 1516 1516 1517 1516 1516 1516 1515 1514 1514 1513 1512 1511 1511 1510
1507 1507 1508 1509 1509 1509 1510 1510 1510 1511 1511 1511 1511 1511 1511 1511 1511 1511 1511 1511 1511 1512 1512 1512 1511 1511 1511 1511 1512 1512 1512 1512 1512 1511 1511 1511 1510 1509 1509 1508 1507 1506 1505
1502 1503 1503 1504 1504 1504 1505 1505 1505 1505 1505 1506 1506 1506 1505 1506 1506 1506 1506 1506 1506 1506 1506 1506 1506 1506 1506 1506 1506 1506 1507 1507 1506 1506 1506 1506 1505 1505 1504 1503 1503 1502 1501
1498 1498 1499 1499 1499 1499 1500 1500 1500 1500 1500 1501 1500 1500 1500 1500 1500 1500 1500 1500 1500 1501 1501 1501 1501 1501 1501 1501 1501 1501 1501 1501 1501 1501 1501 1501 1500 1500 1499 1498 1498 1497 1496
1494 1494 1494 1494 1494 1495 1495 1495 1494 1495 1494 1495 1495 1495 1494 1495 1495 1495 1495 1495 1495 1495 1495 1495 1495 1495 1495 1495 1495 1495 1495 1495 1495 1495 1495 1495 1495 1494 1494 1493 1492 1491 1491
1489 1489 1489 1490 1490 1490 1490 1489 1489 1489 1489 1489 1489 1489 1489 1489 1489 1489 1489 1489 1489 1489 1489 1489 1489 1489 1489 1489 1489 1489 1489 1489 1489 1489 1489 1489 1488 1488 1488 1487 1486 1486 1485
1484 1484 1485 1485 1485 1485 1485 1484 1484 1484 1483 1483 1483 1483 1483 1483 1483 1482 1483 1482 1482 1482 1482 1483 1483 1483 1483 1483 1483 1483 1483 1483 1483 1483 1482 1482 1482 1482 1481 1481 1480 1480 1479
1479 1480 1480 1480 1480 1480 1480 1479 1479 1479 1478 1477 1477 1477 1477 1477 1477 1477 1476 1476 1476 1476 1476 1476 1476 1477 1477 1477 1477 1477 1477 1476 1476 1476 1476 1476 1475 1475 1474 1474 1474 1473 1473
1474 1475 1475 1475 1475 1475 1475 1474 1474 1473 1473 1472 1471 1471 1471 1471 1470 1470 1470 1470 1470 1470 1470 1470 1470 1470 1470 1470 1470 1470 1470 1470 1470 1470 1469 1469 1469 1468 1467 1467 1467 1466 1466
1469 1469 1470 1470 1470 1470 1470 1469 1469 1468 1467 1467 1466 1466 1465 1465 1465 1464 1464 1464 1464 1464 1463 1463 1463 1463 1463 1463 1463 1463 1463 1463 1463 1462 1462 1462 1461 1461 1461 1460 1460 1460 1459
1464 1464 1464 1464 1464 1464 1464 1464 1463 1463 1462 1461 1461 1461 1460 1460 1459 1459 1458 1458 1458 1458 1458 1457 1457 1457 1456 1456 1456 1456 1455 1455 1455 1455 1455 1455 1454 1454 1454 1453 1453 1453 1453
1459 1459 1459 1459 1459 1459 1459 1458 1458 1457 1457 1456 1456 1455 1455 1454 1454 1453 1453 1452 1452 1452 1451 1451 1450 1450 1449 1449 1449 1448 1448 1448 1448 1448 1448 1447 1447 1447 1447 1446 1446 1446 1446
1454 1454 1454 1454 1454 1453 1453 1453 1452 1452 1452 1451 1451 1450 1449 1449 1448 1448 1447 1447 1446 1445 1445 1444 1443 1443 1442 1442 1441 1441 1440 1440 1440 1440 1440 1440 1439 1439 1439 1439 1438 1438 1439
1450 1450 1450 1449 1449 1448 1448 1448 1447 1446 1446 1445 1445 1444 1443 1443 1442 1442 1441 1441 1440 1439 1438 1437 1437 1436 1435 1434 1433 1433 1432 1433 1433 1433 1433 1432 1432 1432 1431 1431 1431 1431 1432
1445 1445 1445 1444 1444 1443 1443 1442 1442 1441 1441 1440 1439 1439 1438 1437 1437 1436 1435 1434 1434 1432 1431 1431 1430 1429 1428 1427 1426 1425 1425 1425 1425 1425 1425 1425 1424 1424 1424 1424 1424 1424 1425